Regional Weather Roundup
Issued by NWS

Home | Current Version | Previous Version | Text Only | Print | Product List | Glossary Off
Versions: 1 2 3 4 5 6 7 8 9 10 11 12 13 14 15 16 17 18 19 20 21 22 23 24 25 26 27 28 29 30 31 32 33 34 35 36 37 38 39 40 41 42 43 44 45 46 47 48 49 50

000
ASUS43 KLSX 251259
RWRMO

WEATHER SUMMARY FOR MISSOURI
NATIONAL WEATHER SERVICE SPRINGFIELD MO
800 AM CDT SAT OCT 25 2014

NOTE: "FAIR" INDICATES FEW OR NO CLOUDS BELOW 12,000 FEET WITH NO
       SIGNIFICANT WEATHER AND/OR OBSTRUCTIONS TO VISIBILITY.
       CURRENT SKY AND/OR WEATHER CONDITIONS ARE NOT AVAILABLE FOR
       CHILLICOTHE AND FARMINGTON.

MOZ001>031-035>038-043-044-053-054-251400-
...NORTHERN AND WESTERN MISSOURI...

CITY           SKY/WX    TMP DP  RH WIND       PRES   REMARKS
KANSAS CTY INT FOG       54  54 100 CALM      30.05S VSB 1/4
KANSAS C DTWN  FOG       57  56  96 CALM      30.04S VSB<1/4
LEE`S SUMMIT   FOG       53  53 100 SW5       30.05S VSB<1/4
ST JOSEPH      FOG       50  50 100 CALM      30.06R VSB<1/4
KIRKSVILLE     FOG       48  48 100 NW3       30.03S VSB<1/4

$$
MOZ066>068-077>081-088>096-101>105-251400-
...SOUTHWEST MISSOURI...

CITY           SKY/WX    TMP DP  RH WIND       PRES   REMARKS
SPRINGFIELD    CLEAR     63  58  83 W6        30.08R
JOPLIN         CLEAR     61  58  90 S6        30.08R

$$
MOZ032>034-039>042-045>050-055>058-069>072-251400-
...CENTRAL MISSOURI...

CITY           SKY/WX    TMP DP  RH WIND       PRES   REMARKS
COLUMBIA       FOG       57  57 100 W5        30.04S VSB 1/2
JEFFERSON CITY FOG       54  53  97 CALM      30.04R VSB<1/4
ROLLA          CLEAR     57  55  93 W6        30.04R FOG
SEDALIA        FOG       59  57  93 SW6       30.05S VSB 1/2
OSAGE BEACH    CLEAR     57  55  94 CALM      30.06R

$$
MOZ051-052-059>065-251400-
...EAST CENTRAL MISSOURI...

CITY           SKY/WX    TMP DP  RH WIND       PRES   REMARKS
ST LOUIS INTL  PTCLDY    58  56  93 W5        30.04R FOG
SPIRIT OF STL  CLEAR     52  52 100 CALM      30.03R FOG
ST CHARLES     FOG       50  50 100 CALM      30.03R VSB<1/4

$$
MOZ072>076-082>087-097>100-106>115-251400-
...SOUTH CENTRAL AND SOUTHEAST MISSOURI...

CITY           SKY/WX    TMP DP  RH WIND       PRES   REMARKS
CAPE GIRARDEAU CLEAR     54  52  93 CALM      30.04S FOG
FARMINGTON     CLEAR     57  55  94 CALM      30.06R
POPLAR BLUFF   CLEAR     56  53  90 SW3       30.05R FOG
WEST PLAINS    CLEAR     58  56  93 W7        30.08S FOG

$$



USA.gov is the U.S. government's official web portal to all federal, state and local government web resources and services.